Location: Poughquag
(41.6090°N, 73.6820°W)
Time: 00:48:05
(UTC-05:00)

Explorer 11/Cluster Stage 4 - All Passes

Search period start: 29 November 2023 00:00
Search period end: 09 December 2023 00:00
Orbit: 465 x 1228 km, 28.8° (Epoch: 28 November)

Date Brightness Start Highest point End Pass type
(mag) Time Alt. Az. Time Alt. Az. Time Alt. Az.
29 Nov - 15:42:31 10° S 15:44:21 12° S 15:46:04 10° SSE daylight
29 Nov - 17:29:07 10° SW 17:31:40 15° S 17:34:00 10° SSE visible
30 Nov - 15:25:43 10° SSW 15:28:26 14° S 15:30:55 10° SE daylight
30 Nov - 17:12:52 10° SW 17:15:48 16° S 17:18:26 10° SE visible
01 Dec - 15:09:06 10° SSW 15:12:30 16° S 15:15:33 10° SE daylight
01 Dec - 16:56:37 10° SW 16:59:54 17° S 17:02:50 10° SE visible
02 Dec - 14:52:33 10° SSW 14:56:32 18° S 15:00:03 10° SE daylight
02 Dec - 16:40:21 10° SW 16:43:59 18° S 16:47:11 10° SE daylight
02 Dec - 18:30:56 10° SSW 18:31:05 10° SSW 18:31:15 10° SSW visible
03 Dec - 12:50:30 10° S 12:52:53 12° SSE 12:55:10 10° SE daylight
03 Dec - 14:36:02 10° SW 14:40:33 20° S 14:44:29 10° SE daylight
03 Dec - 16:24:03 10° SW 16:28:02 20° S 16:31:31 10° SE daylight
03 Dec - 18:14:37 10° SSW 18:15:09 10° SSW 18:15:40 10° SSW visible
04 Dec - 12:33:23 10° S 12:36:48 14° SSE 12:40:00 10° SE daylight
04 Dec - 14:19:32 10° SW 14:24:31 22° S 14:28:51 10° SE daylight
04 Dec - 16:07:45 10° SW 16:12:03 21° S 16:15:48 10° SE daylight
04 Dec - 17:58:25 10° SSW 17:59:11 10° SSW 17:59:55 10° SSW visible
05 Dec - 12:16:30 10° SSW 12:20:41 16° SSE 12:24:33 10° SE daylight
05 Dec - 14:03:04 10° SW 14:08:26 24° S 14:13:07 10° SE daylight
05 Dec - 15:51:25 10° WSW 15:56:03 21° S 16:00:02 10° SE daylight
05 Dec - 17:42:14 10° SW 17:43:11 10° SSW 17:44:06 10° SSW visible
06 Dec - 11:59:46 10° SSW 12:04:31 18° SSE 12:08:57 10° ESE daylight
06 Dec - 13:46:36 10° SW 13:52:21 25° S 13:57:22 10° ESE daylight
06 Dec - 15:35:05 10° WSW 15:40:00 22° SSW 15:44:14 10° SE daylight
06 Dec - 17:26:05 10° SW 17:27:09 11° SSW 17:28:12 10° SSW visible
07 Dec - 11:43:06 10° SSW 11:48:20 19° SSE 11:53:13 10° ESE daylight
07 Dec - 13:30:09 10° SW 13:36:13 27° S 13:41:33 10° ESE daylight
07 Dec - 15:18:45 10° WSW 15:23:55 23° SSW 15:28:24 10° SE daylight
07 Dec - 17:09:55 10° SW 17:11:06 11° SSW 17:12:14 10° SSW visible
08 Dec - 11:26:30 10° SSW 11:32:07 21° SSE 11:37:24 10° ESE daylight
08 Dec - 13:13:43 10° SW 13:20:03 28° S 13:25:40 10° ESE daylight
08 Dec - 15:02:24 10° WSW 15:07:48 23° SSW 15:12:30 10° SE daylight
08 Dec - 16:53:48 10° SW 16:55:00 11° SSW 16:56:10 10° SSW visible
